Temperature
26 26 27 27 27 27 27 27 27 28 28 28 26 26 25 24 23 22 22 21 21 21 20 20 19 19 19 19 19 19 19 19 19 19 19 18 18 18 18 18 18 18 18 18
24 26 26 26 26 26 26 27 27 27 27 27 26 24 24 23 22 21 21 21 20 20 19 19 19 19 19 19 18 18 19 19 19 18 18 18 18 18 18 18 18 18 18 17
24 25 24 24 25 25 26 26 26 26 26 25 25 24 23 22 21 21 20 20 20 19 19 19 19 19 19 18 18 18 18 18 18 18 18 18 17 18 18 18 18 18 18 18
23 23 22 25 25 25 25 25 25 25 25 24 23 22 21 21 21 20 20 19 19 19 19 18 18 18 18 18 18 18 18 18 18 18 17 17 17 17 17 17 17 17 17 17
22 23 23 24 24 24 23 24 24 24 23 23 22 22 21 20 20 19 19 19 18 18 18 18 18 18 17 17 17 18 18 18 17 17 17 17 17 17 17 17 17 17 17 17
21 21 22 24 23 23 23 23 23 22 22 21 21 23 22 19 19 18 18 17 17 17 17 17 17 17 17 17 17 17 17 17 17 17 17 17 16 16 16 16 16 16 16 16
21 21 23 22 22 22 22 22 21 21 20 20 21 21 20 18 18 17 17 17 17 17 17 17 17 17 16 16 16 17 16 16 16 16 16 16 16 16 16 16 16 15 15 16
21 21 22 21 21 21 20 19 19 19 19 19 19 19 18 18 17 17 16 16 16 16 16 16 16 16 16 16 16 16 16 16 16 16 16 16 15 15 15 15 15 15 15 15
21 21 20 19 19 18 18 18 18 19 18 18 18 18 17 17 17 16 16 16 16 16 16 16 16 16 16 16 16 16 15 15 15 15 15 15 15 15 15 15 15 15 15 15
19 20 19 19 18 18 18 18 18 18 17 17 17 17 17 16 16 16 16 16 16 16 15 15 16 16 15 15 15 15 15 15 15 15 15 15 15 15 15 15 15 15 15 15
18 19 18 18 17 17 17 17 17 17 17 17 17 17 16 16 15 15 15 15 15 15 15 15 15 15 15 15 15 15 14 14 14 14 15 14 14 14 14 14 15 14 14 14
18 18 18 18 17 16 16 16 16 16 16 16 16 16 15 15 15 15 15 14 14 14 14 14 14 14 15 14 14 14 14 14 14 14 14 14 14 14 14 14 14 14 14 13
17 17 17 16 16 16 16 15 15 15 15 15 15 15 15 15 14 14 14 14 14 14 14 14 14 14 14 14 14 14 14 14 14 14 14 14 14 14 14 14 13 13 13 13
15 15 15 15 15 15 15 15 15 15 15 15 14 14 14 14 14 14 14 14 14 14 13 13 14 14 13 14 14 14 13 13 13 13 13 13 13 13 13 13 13 13 13 13
14 15 15 15 14 14 14 14 14 14 14 14 14 14 13 13 13 13 13 13 13 13 13 13 13 13 13 13 13 13 13 13 13 13 13 13 13 13 13 13 13 12 12 12
14 14 14 14 14 14 14 14 14 14 14 13 13 13 13 13 13 13 13 13 12 13 13 12 12 12 12 12 12 12 12 12 12 12 12 12 12 12 12 12 12 12 12 11
14 14 14 14 14 14 14 14 14 13 13 13 13 13 12 12 12 12 12 12 12 12 12 12 12 12 12 11 12 12 12 12 12 12 12 12 12 12 12 12 11 11 11 11
13 13 13 13 13 13 13 13 13 13 13 12 12 12 12 12 12 12 12 12 11 11 11 11 11 11 11 11 11 11 11 12 12 12 12 12 11 11 11 11 11 11 11 11
13 13 13 13 13 13 13 12 12 12 12 12 12 12 12 12 11 11 11 11 11 11 11 11 11 11 11 11 11 11 11 11 11 11 11 11 11 11 11 11 11 10 10 10
13 13 12 12 12 12 12 12 12 12 12 12 12 12 11 11 11 11 11 11 11 11 11 11 11 11 11 11 11 11 11 11 11 11 11 11 11 11 11 10 10 10 10 10
12 12 12 12 12 12 12 11 11 11 11 11 11 11 11 11 11 11 11 11 11 11 11 11 11 10 10 11 11 11 11 11 11 11 11 10 10 10 10 10 10 10 10 9
12 12 12 12 12 11 11 11 11 11 11 11 11 11 11 11 11 11 10 10 10 10 10 10 10 10 10 10 10 10 10 10 10 10 10 10 10 10 10 10 10 9 9 9
12 12 11 11 11 11 11 11 11 11 11 11 11 11 11 11 11 11 11 10 10 10 10 10 10 10 10 10 10 10 10 10 10 10 10 10 10 9 9 9 9 9 9 9
11 11 11 11 11 11 11 11 11 11 11 11 11 11 10 11 11 11 10 10 10 10 10 10 10 10 10 10 10 10 10 10 10 10 10 9 9 9 9 9 9 9 9 9
11 11 11 11 11 11 11 11 11 11 11 11 11 11 11 10 10 10 10 10 10 10 10 10 9 9 9 9 9 9 9 9 9 9 9 9 9 9 9 9 9 9 9 8
11 11 11 11 11 11 11 11 11 11 11 11 11 11 11 10 10 10 10 9 9 9 9 9 9 9 9 9 9 9 9 9 9 9 9 9 9 9 8 8 8 8 8 8
11 11 11 11 11 11 11 11 11 11 11 11 11 10 10 10 10 10 10 10 10 10 9 9 9 9 9 9 9 9 9 9 9 8 8 8 8 8 8 8 8 8 8 8
Wind_Speed
12 11 11 13 14 13 15 17 17 15 14 10 6 5 5 3 2 1 2 2 3 3 4 5 6 7 7 7 7 7 7 7 7 7 7 7 6 6 6 7 7 7 7 7
13 13 13 14 15 15 16 15 16 16 14 7 5 4 4 3 3 3 2 2 2 3 4 5 6 6 7 7 7 7 7 7 6 6 6 6 6 6 6 7 7 7 7 7
12 10 12 16 14 13 13 13 13 14 9 4 4 4 3 3 3 2 2 2 2 3 3 4 5 6 6 7 7 7 7 7 7 7 7 6 6 6 6 6 6 6 6 6
10 9 13 8 4 7 9 9 9 8 6 5 4 3 3 3 3 2 2 2 1 2 3 3 4 5 5 6 7 7 7 6 6 6 6 6 5 5 5 5 5 5 6 6
9 12 13 8 4 4 7 8 6 5 4 3 3 4 4 2 2 2 2 1 1 1 2 2 3 5 5 5 5 6 6 6 6 6 6 6 5 5 4 4 5 5 6 6
10 11 12 5 1 3 6 8 3 3 3 3 5 6 3 1 2 2 1 1 1 1 1 2 3 4 5 5 5 5 5 6 5 6 6 5 5 5 5 5 5 6 5 6
13 13 10 1 2 4 9 4 0 3 4 5 6 6 2 2 2 2 2 2 2 1 1 1 3 4 4 5 5 5 5 5 5 5 6 6 5 5 5 5 5 6 5 5
10 12 8 3 2 4 4 4 3 4 4 4 4 3 2 2 2 2 2 2 2 1 1 1 2 4 4 4 4 3 4 4 4 4 5 4 5 5 5 5 6 7 6 6
6 5 2 2 2 3 3 3 2 3 3 3 3 2 1 1 1 1 1 1 1 1 1 1 2 3 4 3 3 3 3 4 3 4 4 4 5 6 6 6 6 6 6 7
8 6 5 4 3 3 3 3 3 3 3 3 3 2 1 1 0 1 1 1 1 2 2 3 3 3 3 3 3 3 4 3 4 4 4 4 4 5 5 6 6 6 7 7
10 8 6 5 4 4 4 4 3 3 3 3 3 2 2 2 1 1 1 2 2 2 3 4 4 3 3 3 3 3 4 4 4 4 4 4 5 4 6 5 5 6 6 6
9 7 6 7 6 6 5 4 3 3 3 3 2 2 2 2 2 2 2 2 2 3 4 4 4 4 4 4 4 5 4 4 4 5 4 5 5 5 3 5 4 5 6 7
8 8 8 7 6 6 5 4 4 4 4 3 3 3 3 3 3 3 3 4 4 4 5 5 5 4 4 4 5 5 5 5 5 6 6 6 6 6 5 4 6 8 8 8
7 7 8 7 6 5 5 4 4 4 4 4 3 3 4 4 4 4 5 5 5 5 5 6 6 5 5 4 5 5 6 6 7 7 7 7 7 7 6 6 6 5 6 8
8 8 7 6 5 5 4 4 3 3 4 4 4 4 5 5 5 5 5 5 5 6 6 6 6 5 4 5 5 6 6 6 6 6 7 7 7 7 7 7 7 6 5 4
7 7 6 5 5 4 4 4 4 4 4 4 4 5 5 5 4 4 4 4 6 6 6 6 7 6 5 5 6 6 6 5 6 7 7 7 6 6 6 6 6 5 5 5
7 7 5 5 5 5 4 4 4 3 4 4 5 4 4 4 4 5 5 5 5 6 6 7 7 6 5 5 6 6 6 5 6 7 7 7 6 6 6 6 6 5 6 5
7 7 6 6 5 5 5 4 4 4 4 4 4 3 4 4 5 5 5 5 5 6 6 6 5 5 5 6 6 6 5 5 6 6 6 6 6 6 6 6 6 6 5 4
5 5 5 5 5 5 4 4 4 3 3 3 4 4 4 4 5 5 6 6 7 7 6 5 4 6 6 5 5 5 6 6 6 6 5 5 6 6 6 5 5 5 5 4
3 3 3 3 3 4 4 4 3 3 3 4 4 4 4 4 4 5 5 5 5 6 5 4 5 5 5 4 5 5 5 6 5 5 4 4 5 5 5 5 5 5 4 5
2 2 3 3 3 2 3 3 3 3 3 4 4 4 4 4 4 5 5 5 4 4 4 3 4 4 4 4 5 5 4 4 4 4 4 4 4 4 4 4 4 4 4 4
2 2 2 2 2 1 1 2 2 2 3 3 3 3 4 4 4 3 3 4 3 2 3 3 3 3 5 6 4 4 3 3 3 3 3 3 3 3 3 3 3 3 3 4
1 1 1 1 1 0 0 1 1 1 2 2 3 3 3 3 3 3 3 2 2 2 3 3 4 4 5 4 3 3 3 3 3 3 3 3 3 3 3 3 3 3 3 3
1 1 1 1 1 1 0 0 1 1 2 2 2 3 3 3 2 2 1 1 1 2 2 2 2 3 4 2 3 3 3 3 3 3 3 2 3 3 3 3 3 3 3 4
1 0 0 0 0 0 0 1 1 2 3 2 2 2 2 2 2 2 2 2 2 2 2 1 1 3 3 2 2 3 3 3 3 3 3 3 3 3 2 2 3 3 3 3
0 1 1 1 1 1 2 2 2 2 2 2 2 2 2 1 1 1 1 2 2 2 2 2 2 2 2 2 3 3 3 3 3 3 3 3 3 3 2 2 3 3 3 3
1 1 1 2 2 2 2 2 2 2 2 2 2 2 1 1 1 1 1 1 2 2 2 2 2 3 3 3 3 2 2 2 3 3 3 3 3 3 3 3 3 3 3 3
Wind_Direction
266 272 267 259 257 251 250 255 259 262 262 262 262 262 257 247 216 178 145 137 148 151 153 155 159 163 163 165 167 170 171 177 183 189 196 203 208 213 217 224 223 222 226 228
261 260 260 261 256 252 252 253 254 258 259 257 261 255 248 237 216 195 172 156 156 151 153 156 160 164 165 166 172 171 171 175 175 181 187 194 205 211 216 224 229 225 226 230
262 259 259 252 250 248 248 248 251 257 260 253 244 239 238 233 222 201 173 156 159 155 164 171 169 169 168 170 174 175 177 179 179 183 188 194 205 206 213 218 225 225 226 231
261 257 248 250 250 257 253 251 260 264 252 239 239 232 235 224 215 195 173 164 158 173 181 185 177 174 178 175 176 178 180 182 180 188 192 193 199 206 212 216 223 229 235 237
253 250 251 238 238 253 256 252 259 253 244 242 242 230 213 217 222 206 208 190 191 203 210 193 187 182 182 180 182 185 185 186 188 191 195 197 202 210 217 222 227 232 233 237
242 251 253 246 239 274 259 243 233 247 235 239 247 243 228 218 245 228 227 217 222 236 239 203 185 180 190 191 193 198 196 194 194 193 197 201 207 214 220 226 231 237 238 239
242 247 252 315 318 248 238 265 269 248 242 239 256 280 275 250 254 233 228 213 203 219 246 213 180 176 190 197 208 208 200 193 195 198 199 206 214 219 221 231 239 246 246 243
240 246 246 47 266 250 310 332 280 257 249 257 272 276 243 234 236 222 220 203 191 220 270 268 209 189 198 212 223 217 210 207 199 212 220 209 213 226 228 232 236 239 239 248
251 260 333 320 293 302 297 283 283 276 277 262 256 246 245 257 244 205 191 204 231 273 305 292 244 219 223 232 234 223 214 219 214 216 231 229 227 229 227 226 239 246 247 251
258 253 267 272 280 298 306 294 291 293 282 263 263 262 294 302 263 227 222 249 282 295 303 297 276 252 251 253 247 231 222 225 224 226 231 233 238 237 238 238 242 248 253 257
252 265 277 261 276 288 303 301 298 304 293 284 279 280 294 308 315 300 274 281 279 286 295 298 294 279 269 265 256 242 237 242 242 244 243 243 243 250 249 256 253 255 264 270
257 267 272 283 284 283 283 284 282 285 292 291 282 285 294 298 304 294 293 293 283 290 297 298 292 274 273 273 258 250 247 248 255 257 252 250 251 258 238 235 210 218 237 256
271 281 282 287 282 279 273 276 281 277 271 276 281 285 289 290 292 289 288 287 289 295 298 298 294 283 274 270 264 258 258 260 260 260 258 258 259 260 268 249 216 216 216 220
271 273 268 269 275 275 272 278 279 276 269 263 270 282 288 287 287 286 283 285 287 290 291 292 289 284 279 271 265 264 263 259 257 258 258 258 258 260 263 265 267 266 238 213
266 264 264 267 268 263 262 261 265 269 268 266 264 269 275 279 278 278 280 279 282 284 286 291 291 290 284 274 268 269 268 266 266 267 265 265 264 265 265 265 268 272 276 258
260 259 254 253 252 252 255 253 254 266 276 279 274 269 274 278 283 284 283 281 279 282 289 291 290 288 280 272 269 266 262 257 262 268 268 264 260 260 262 262 265 268 265 265
249 248 248 251 253 256 256 258 258 262 276 280 277 272 274 275 278 283 292 293 287 285 285 284 286 288 284 278 275 275 275 264 243 259 263 260 257 254 255 257 262 269 269 266
248 250 251 251 250 254 255 256 261 266 272 279 280 274 273 277 284 293 300 303 296 290 287 288 294 294 283 278 278 277 274 274 269 264 262 259 255 251 252 254 254 257 262 252
244 248 250 250 249 246 241 244 253 259 259 263 266 270 278 284 287 294 301 303 298 293 296 302 305 287 283 286 288 274 273 272 271 270 266 253 251 253 252 252 250 251 258 261
244 239 240 239 239 237 230 235 245 251 255 260 266 269 275 281 285 290 297 295 295 303 306 311 295 288 286 286 291 283 280 275 274 274 271 267 263 261 256 252 251 251 254 261
238 223 220 219 221 230 228 228 231 236 251 266 270 270 274 280 283 287 289 291 304 312 304 285 283 296 297 310 287 284 285 286 285 281 274 270 269 268 266 262 258 253 252 257
203 193 198 207 209 207 223 232 239 251 266 281 280 276 279 286 291 292 290 297 313 337 307 304 313 344 328 307 289 292 295 298 298 298 291 283 274 270 268 267 267 261 250 247
165 164 174 184 182 166 274 280 278 280 285 287 284 284 290 302 305 301 308 335 340 356 324 335 2 357 315 297 304 308 307 305 310 310 306 298 291 281 275 274 272 273 269 264
138 147 156 155 146 128 113 4 344 323 313 298 288 284 284 288 285 289 351 81 12 339 335 19 357 315 290 298 311 315 317 317 317 320 321 317 301 294 289 282 276 270 269 271
139 160 143 167 174 94 246 253 280 292 291 298 314 312 287 289 308 337 354 4 17 323 337 20 229 281 295 314 314 321 324 334 333 323 316 314 306 304 300 294 291 287 281 278
267 267 288 282 303 293 280 282 299 317 319 323 343 356 354 2 352 316 305 318 319 311 317 324 323 282 309 320 325 329 336 342 324 313 324 323 325 319 304 298 294 293 292 293
243 241 243 253 248 261 277 288 300 312 329 345 347 355 5 14 360 346 343 336 330 324 329 334 338 335 341 344 347 345 347 349 345 343 340 334 330 327 325 313 306 305 305 304
Height
1467 1463 1462 1462 1461 1460 1462 1459 1459 1455 1454 1453 1456 1460 1462 1464 1465 1466 1467 1468 1470 1470 1472 1473 1475 1477 1479 1481 1484 1486 1488 1490 1492 1494 1497 1499 1500 1501 1502 1504 1505 1506 1507 1507
1470 1463 1462 1462 1459 1458 1459 1456 1455 1454 1453 1454 1457 1460 1462 1463 1464 1465 1466 1467 1469 1470 1471 1472 1473 1475 1477 1479 1481 1482 1485 1487 1488 1491 1493 1495 1497 1498 1499 1500 1501 1502 1503 1503
1470 1462 1464 1464 1456 1456 1455 1453 1454 1454 1452 1455 1457 1460 1462 1463 1464 1465 1466 1467 1468 1468 1470 1471 1472 1473 1474 1476 1478 1479 1481 1483 1485 1487 1489 1491 1493 1494 1495 1496 1497 1498 1498 1499
1469 1470 1476 1456 1451 1453 1453 1453 1452 1452 1454 1456 1458 1461 1463 1464 1464 1464 1465 1466 1466 1467 1468 1469 1470 1471 1473 1474 1476 1477 1479 1480 1482 1484 1485 1487 1489 1490 1492 1493 1493 1493 1494 1495
1470 1468 1461 1453 1453 1454 1456 1455 1454 1454 1455 1458 1459 1460 1461 1463 1463 1463 1464 1465 1465 1466 1466 1467 1468 1469 1470 1471 1473 1475 1476 1477 1479 1481 1482 1484 1485 1486 1488 1489 1489 1490 1490 1490
1470 1472 1466 1452 1453 1455 1457 1456 1455 1456 1457 1458 1458 1455 1456 1460 1461 1461 1462 1463 1463 1464 1464 1465 1465 1466 1467 1469 1470 1472 1473 1475 1476 1477 1479 1480 1482 1483 1484 1485 1485 1486 1486 1486
1467 1466 1454 1453 1455 1456 1461 1456 1456 1457 1458 1459 1457 1456 1458 1458 1458 1458 1459 1460 1461 1462 1462 1462 1463 1464 1466 1467 1468 1469 1471 1472 1473 1474 1475 1477 1479 1479 1480 1481 1482 1482 1482 1482
1463 1464 1458 1456 1456 1457 1458 1459 1458 1458 1459 1459 1458 1457 1456 1457 1457 1457 1456 1457 1459 1460 1460 1460 1461 1462 1463 1464 1465 1466 1467 1468 1469 1471 1472 1474 1475 1475 1476 1476 1477 1478 1478 1477
1458 1459 1459 1459 1459 1460 1460 1459 1459 1458 1458 1458 1457 1456 1456 1456 1456 1457 1456 1457 1457 1458 1458 1459 1460 1460 1461 1462 1462 1463 1464 1464 1465 1467 1468 1470 1471 1472 1472 1472 1473 1474 1474 1474
1460 1456 1458 1459 1460 1460 1459 1459 1458 1458 1457 1457 1456 1455 1455 1455 1455 1456 1457 1457 1456 1457 1457 1458 1458 1458 1459 1459 1460 1460 1461 1461 1462 1463 1464 1466 1467 1467 1468 1468 1469 1469 1469 1469
1458 1458 1458 1458 1459 1459 1459 1458 1457 1457 1456 1456 1455 1455 1455 1454 1454 1455 1455 1456 1456 1456 1456 1456 1456 1456 1457 1457 1456 1457 1457 1458 1459 1460 1461 1461 1462 1462 1463 1463 1463 1463 1464 1464
1455 1456 1457 1457 1458 1458 1457 1456 1456 1456 1455 1455 1455 1455 1454 1454 1454 1454 1454 1454 1454 1454 1454 1454 1453 1453 1454 1454 1454 1454 1454 1454 1456 1457 1457 1458 1458 1458 1457 1457 1457 1457 1457 1458
1457 1457 1457 1456 1456 1456 1455 1455 1454 1454 1454 1454 1454 1453 1453 1453 1452 1452 1452 1452 1452 1452 1452 1451 1451 1450 1451 1450 1451 1451 1451 1451 1452 1453 1453 1453 1453 1452 1452 1452 1452 1452 1452 1451
1456 1456 1455 1455 1454 1454 1453 1453 1452 1452 1452 1452 1452 1452 1452 1451 1450 1450 1450 1450 1450 1449 1449 1448 1448 1447 1447 1447 1447 1447 1447 1447 1448 1448 1448 1448 1448 1448 1447 1447 1447 1447 1447 1446
1453 1453 1453 1452 1452 1451 1451 1450 1450 1450 1450 1450 1450 1450 1450 1449 1448 1448 1448 1448 1448 1447 1446 1445 1445 1444 1444 1444 1443 1443 1444 1444 1443 1443 1443 1443 1442 1442 1442 1442 1441 1441 1441 1440
1450 1450 1450 1449 1449 1449 1448 1448 1448 1448 1448 1448 1448 1448 1448 1447 1446 1446 1445 1445 1445 1444 1443 1443 1441 1441 1440 1440 1439 1439 1439 1439 1438 1438 1438 1438 1437 1437 1436 1436 1436 1435 1435 1434
1447 1447 1446 1446 1446 1446 1446 1446 1446 1446 1446 1446 1446 1446 1445 1445 1444 1444 1443 1443 1443 1441 1440 1439 1438 1437 1436 1436 1435 1435 1435 1434 1433 1433 1433 1432 1431 1431 1431 1431 1431 1430 1430 1429
1444 1444 1444 1444 1443 1444 1444 1444 1444 1444 1444 1444 1444 1443 1443 1442 1442 1441 1441 1440 1439 1438 1437 1436 1435 1434 1432 1432 1431 1431 1430 1429 1429 1428 1427 1427 1426 1426 1426 1426 1425 1425 1425 1425
1440 1441 1441 1441 1441 1441 1441 1442 1442 1442 1442 1442 1442 1441 1440 1440 1440 1439 1438 1436 1435 1435 1434 1433 1431 1430 1429 1428 1427 1426 1426 1425 1424 1423 1422 1421 1421 1421 1421 1421 1420 1420 1420 1420
1439 1439 1439 1439 1438 1439 1439 1439 1439 1440 1440 1440 1440 1439 1438 1438 1437 1436 1435 1434 1433 1432 1431 1429 1428 1427 1426 1425 1423 1423 1422 1421 1420 1419 1418 1417 1417 1416 1416 1416 1416 1416 1416 1416
1437 1437 1437 1437 1437 1437 1437 1437 1437 1437 1438 1438 1437 1437 1436 1436 1435 1434 1432 1431 1430 1429 1428 1426 1425 1424 1423 1422 1420 1420 1419 1417 1416 1415 1415 1414 1413 1413 1412 1412 1412 1412 1412 1412
1436 1436 1436 1436 1435 1435 1435 1435 1435 1435 1435 1435 1435 1434 1434 1433 1432 1431 1430 1429 1428 1426 1425 1424 1423 1422 1420 1419 1418 1417 1416 1415 1414 1413 1412 1411 1410 1410 1409 1408 1408 1408 1408 1408
1435 1435 1435 1435 1435 1434 1434 1434 1434 1434 1434 1433 1433 1432 1432 1431 1430 1429 1428 1427 1426 1424 1423 1422 1421 1420 1418 1417 1416 1415 1414 1413 1412 1410 1409 1408 1408 1407 1407 1406 1405 1405 1405 1405
1434 1434 1434 1434 1434 1434 1434 1434 1433 1433 1432 1431 1431 1430 1430 1429 1428 1428 1427 1425 1424 1423 1422 1421 1420 1418 1417 1416 1414 1413 1412 1411 1410 1409 1407 1407 1406 1405 1404 1404 1404 1403 1403 1402
1434 1434 1434 1434 1434 1433 1433 1433 1433 1432 1431 1430 1429 1429 1428 1428 1427 1426 1425 1424 1423 1422 1421 1420 1419 1418 1416 1415 1414 1412 1411 1410 1409 1408 1406 1405 1404 1403 1403 1402 1402 1401 1401 1400
1433 1434 1434 1434 1433 1433 1433 1432 1432 1430 1429 1428 1428 1427 1427 1426 1425 1425 1424 1423 1423 1422 1421 1420 1418 1417 1416 1415 1413 1412 1411 1409 1408 1407 1406 1404 1403 1402 1401 1400 1400 1399 1399 1398
1433 1433 1433 1433 1433 1432 1432 1431 1431 1430 1429 1428 1427 1427 1426 1425 1425 1424 1424 1423 1423 1422 1421 1420 1418 1417 1416 1415 1413 1412 1410 1409 1407 1406 1405 1403 1402 1401 1400 1399 1398 1398 1397 1396